Regional Weather Roundup
Issued by NWS Wakefield, VA

Home | Current Version | Previous Version | Graphics & Text | Print | Product List | Glossary On
Versions: 1 2 3 4 5 6 7 8 9 10 11 12 13 14 15 16 17 18 19 20 21 22 23 24 25 26 27 28
000
ASUS41 KAKQ 261415
RWRAKQ

REGIONAL WEATHER ROUNDUP
NATIONAL WEATHER SERVICE WAKEFIELD VA
1000 AM EDT TUE SEP 26 2017

Note: "fair" indicates few or no clouds below 12,000 feet with no
significant weather and/or obstructions to visibility. * = Denotes
station may not report precipitation (e.g., rain,snow,etc.),
thunder or fog.

VAZ042-051-052>054-056-261500-
NORTHERN VIRGINIA

CITY           SKY/WX    TMP DP  RH WIND       PRES   REMARKS
WASH NATIONAL  PTSUNNY   73  68  84 N10       30.03S
DULLES         PTSUNNY   75  65  70 NE9       30.04S
FORT BELVOIR   CLOUDY    73  66  78 CALM      30.03R
QUANTICO       CLOUDY    73  69  87 NE8       30.03S
FREDERICKSBRG* CLOUDY    71  70  98 N7        30.01S
STAFFORD*      CLOUDY    69  69  99 CALM      30.06F
WARRENTON      SUNNY     75  62  64 NE8       30.03F
CULPEPER*      MOSUNNY   75  65  71 N9        30.04F
MANASSAS*      MOSUNNY   74  65  73 N10       30.04S
LEESBURG*      MOSUNNY   77  70  78 NE8       30.06R
WINCHESTER     MOSUNNY   72  64  78 E6        30.05S
FRONT ROYAL*   PTSUNNY   72  66  83 CALM      30.05S
LURAY*         PTSUNNY   73  66  78 NE6       30.05F
$$

VAZ048-049-060>072-079>083-261500-
CENTRAL AND SOUTH CENTRAL VIRGINIA

CITY           SKY/WX    TMP DP  RH WIND       PRES   REMARKS
RICHMOND       CLOUDY    72  68  87 N13       29.98R
CHESTERFIELD*  NOT AVBL
PETERSBURG*    CLOUDY    70  68  94 N7        29.97S
HANOVER        CLOUDY    71  68  90 N5        30.00S
TAPPAHANNOCK*  CLOUDY    74  69  86 N6        30.00R
QUINTON*       CLOUDY    71  70  95 N10G17    29.96S
CHARLOTTSVILLE SUNNY     78  65  63 NE10      30.03R
GORDONSVILLE*  MOSUNNY   74  66  76 E10       30.02S
ORANGE*        MOSUNNY   72  64  78 NE8       30.03S
LOUISA*          N/A     70  64  83 NE8       30.02S
BUMPASS*       CLOUDY    67  67 100 N6        30.02S
FARMVILLE*     SUNNY     74  69  82 NE10      29.99F
CREWE*         CLOUDY    69  69 100 N6        29.99R
FORT PICKETT*  CLOUDY    70  70 100 N6        29.98R
CHASE CITY*    CLOUDY    71  71 100 N8        29.99R
CLARKSVILLE*   CLOUDY    70  70 100 N6        29.97S
SOUTH HILL*    CLOUDY    71  70  97 N9        30.02R
LAWRENCEVILLE* CLOUDY    71  69  92 N6        29.96S
EMPORIA*       CLOUDY    72  68  88 N7        29.95S
$$

VAZ088>098-261500-
SOUTHEAST VIRGINIA

CITY           SKY/WX    TMP DP  RH WIND       PRES   REMARKS
NORFOLK        CLOUDY    74  73  97 NE21G29   29.91S
VIRGINIA BEACH CLOUDY    73  71  93 NE17G26   29.89S
NORFOLK NAVAL  CLOUDY    76  71  85 NE15G23   29.93S
WEST POINT*    CLOUDY    73  70  88 NE7       29.98R
SALUDA*        CLOUDY    72  71  98 N9        29.97R
NEWPORT NEWS   LGT RAIN  73  70  90 NE14      29.93S FOG
LANGLEY AFB    CLOUDY    73  73 100 NE16      29.92S FOG
FORT EUSTIS    CLOUDY    73  70  89 N9        29.91S
WILLIAMSBURG*  MOSUNNY   75  72  88 NE5       29.96R
HR EXEC AP*    CLOUDY    73  72  96 NE10      29.92S FOG
FRANKLIN*      CLOUDY    72  71  96 N7        29.93R FOG
US460-WAKEFLD  CLOUDY    73  71  93 VRB3      29.94S
$$

VAZ020-022-025-037-045-261500-
WEST CENTRAL AND SOUTHWEST VIRGINIA

CITY           SKY/WX    TMP DP  RH WIND       PRES   REMARKS
STAUNTON*      MOSUNNY   72  66  80 CALM      30.08S
WAYNESBORO*    SUNNY     72  67  86 NW6       30.07S
HOT SPRINGS VA MOSUNNY   67  62  84 NE7       30.17S
LYNCHBURG      MOSUNNY   75  64  68 NE10      30.03R
DANVILLE       CLOUDY    74  67  78 NE10      30.00R
SOUTH BOSTON*  CLOUDY    72  68  87 N6        29.99S
MARTINSVILLE   SUNNY     74  65  73 NE7       30.04S
ROANOKE        MOSUNNY   76  66  71 N5        30.06S
BLACKSBURG     MOSUNNY   73  65  77 E5        30.12S
DUBLIN*        MOSUNNY   70  65  85 NW3       30.11R
MARION*        PTSUNNY   69  64  84 CALM      30.15R
HILLSVILLE*    MOSUNNY   67  62  81 N3        30.10S
RICHLANDS*     FAIR      65  60  81 NW3       30.14R
WISE*          SUNNY     72  61  68 CALM      30.14S
ABINGDON*      SUNNY     73  65  76 CALM      30.10R
$$

MDZ021>025-VAZ099-100-261500-
SOUTHERN MARYLAND AND THE DELMARVA PENINSULA

CITY           SKY/WX    TMP DP  RH WIND       PRES   REMARKS
PATUXENT RIVER CLOUDY    71  68  90 NE10      30.00R
BAY BRIDGE APT CLOUDY    70  66  88 NE7       30.03S
LEONARDTOWN    CLOUDY    70  66  88 NE5       30.02R
DOVER          CLOUDY    71  66  85 NE10      30.01S
GEORGETOWN     CLOUDY    72  68  87 NE16      30.02R
EASTON         CLOUDY    72  68  88 NE10      30.05S
CAMBRIDGE      FOG       72  68  88 NE7G14    30.00R VSB 1/4
SALISBURY      CLOUDY    73  70  90 NE10      29.99S
OCEAN CITY     CLOUDY    72  70  93 NE13G18   29.99S
WALLOPS ISLAND CLOUDY    72  71  97 NE17G26   29.97S
ACCOMACK*      CLOUDY    73  72  94 NE12      29.95S
$$

NCZ012>017-030>032-261500-
NORTH CENTRAL AND EASTERN NORTH CAROLINA

CITY           SKY/WX    TMP DP  RH WIND       PRES   REMARKS
ROANOKE RAPIDS CLOUDY    72  70  94 N10G17    29.93R
RALEIGH        CLOUDY    71  68  90 N7        29.95S
ELIZABETH CITY CLOUDY    75  75 100 N20       29.86S
AHOSKIE*       CLOUDY    72  71  99 N9        29.91S
EDENTON*       CLOUDY    76  73  91 N10G20    29.86S
CURRITUCK*     CLOUDY    73  72  98 N17       29.88R FOG
KILL DEVIL HLS NOT AVBL
MANTEO         PTSUNNY   75  73  93 NE22G28   29.80S
CAPE HATTERAS  CLOUDY    77  75  93 NE17G33   29.71R
TARBORO*       NOT AVBL
GOLDSBORO      CLOUDY    73  73 100 N13       29.88R
WASHINGTON     CLOUDY    74  72  93 N13       29.85F
GREENVILLE     CLOUDY    72  72 100 N10G18    29.90S FOG
NEW BERN       CLOUDY    77  73  87 N15G22    29.83F
WILMINGTON     CLOUDY    76  71  85 N12G22    29.83S
$$

VAZ048-261500-
ELSEWHERE

CITY           SKY/WX    TMP DP  RH WIND       PRES   REMARKS
HARRISBURG PA  MOSUNNY   77  70  79 N7        30.05S HAZE
BALTIMORE      PTSUNNY   72  67  84 NE8       30.03S
ANNAPOLIS      CLOUDY    72  70  93 NE8       30.03R
ANDREWS AFB    CLOUDY    69  65  87 NE7       30.02S
PHILADELPHIA   PTSUNNY   71  66  84 E9        30.05S
GREENSBORO     PTSUNNY   73  66  78 NE13      29.99S
ROCKY MOUNT    CLOUDY    73  71  93 N15       29.92R
$$

VAZ100-261500-
MARINE

STATION/POSITION TIME  TEMP    WIND        PRES    WAVE   SWELL
                       AIR SEA DIR/SP/G            HT/PER HT/PER
                 (UTC) (F)     (DEG/KT/KT) (MB)    (FT/S) (FT/S)
BRANDYWINE LGT   1336   71      60/ 15/ 17 1016.9R
CAPE MAY NJ      1348   71 74   70/  8/ 15 1016.0R
LEWES DE         1348   71 74   70/ 19/ 22 1016.3R
15NM E FENWICK I 1350   69 72   30/ 17/ 21 1015.4R   6/15   5/15
OCEAN-CITY-INLET 1348   71 74   60/  7/ 11 1016.0R
WACHAPREAGUE VA  1348   72 74   40/ 17/ 21 1013.9F
THOMAS POINT MD  1400   69 77   20/ 10/ 11   N/A
GOOSES REEF MD   1400   71 76   40/ 12/ 16 1016.9    0
COVE POINT MD    1348   70      40/ 12/ 15 1016.8R
SOLOMONS ISLAND  1336   71 77   20/  8/ 12 1015.4R
BISHOPS HEAD MD  1348   72 76   40/ 12/ 16 1015.5R
PINEY POINT MD   1348           50/  7/ 10   N/A
POTOMAC MD       1400   71 76   40/ 14/ 16 1014.8    1
CAMBRIDGE MD     1348   71 77              1016.9R
LEWISETTA VA     1348   72 78   60/  7/ 11 1015.4R
RAPPAHANNOCK LGT 1348           20/ 19/ 21 1014.4F
STINGRAY PT      1400   73 76   60/ 17/ 21 1014.7    2/ 3
YORK RVR RNG VA  1348   73      30/ 22/ 25 1013.7F
YORKTOWN VA      1348   72 77   30/ 14/ 18 1013.3F
JAMESTOWN VA     1400      79   30/  8/ 16   N/A     0
DOMINION TERM VA 1336   73      50/  4/  9 1013.2F
KIPTOPEKE VA     1348      76   50/ 13/ 20   N/A
CHES BAY BRIDGE  1348   73 75   30/ 23/ 27 1012.3S
CAPE HENRY VA    1348   72      30/ 24/ 29   N/A
WILLOUBY STN VA  1336   74      30/ 19/ 22 1013.0F
S CRANEY ISL VA  1348   74      40/ 16/ 23 1012.5R
CAPE HENRY BUOY  1330      74                N/A     8/15   3/15
1ST LANDING BUOY 1400   73 75              1012.6    4/ 4
64NM E OF VA BCH 1350   72 69   30/ 21/ 27 1010.0F  19/14  18/14
DUCK PIER NC     1348   73 76   30/ 29/ 33 1009.2F
44100 DUCK FRF   1335      74                N/A    10/15   5/15
44056 DUCK FRF   1400      76                N/A    11/15   7/15
OREGON INLET NC  1336   75 75   20/ 21/ 28 1007.5F
HATTERAS NC      1348   77 76   20/ 28/ 35 1005.8R
DIAMOND SHLS NC  1350   76 80   20/ 31/ 39 1003.3R  17/12  11/12
CAPE LOOKOUT NC  1400   78     350/ 22/ 27 1006.5F
$$




USA.gov is the U.S. government's official web portal to all federal, state and local government web resources and services.